User: anonymous   Login
Location: Iola
(37.9240°N, 95.4000°W)
Time: 18:54:57
(UTC-05:00)
Language:

Meteor 2-10 Rocket - Orbit

View from above orbital plane
View from above orbital plane
View from above satellite
View from above satellite

Ground track
Ground track

The orbit data is extracted from the following two-line orbital elements,

1 14453U 83109B   17227.87303190  .00000042  00000-0  12208-4 0  9991
2 14453  81.1652  46.2574 0104033 250.8319 108.1577 14.24677719756026
Epoch (UTC): 15 August 2017 20:57:09
Eccentricity: 0.0104033
inclination: 81.1652°
perigee height: 735 km
apogee height: 884 km
right ascension of ascending node: 46.2574°
argument of perigee: 250.8319°
revolutions per day: 14.24677719
mean anomaly at epoch: 108.1577°
orbit number at epoch: 75602

The dashed part of the orbit path shows where the satellite is in the earth's shadow,  

DLR